Location: Beaver Brook Station
(42.3793°N, 71.2203°W)
Time: 04:45:18
(UTC+00:00)

X-37B - Pass Details

Date: 24 January 2021
Orbit: 383 x 391 km, 45.0° (Epoch: 27 February)

Event Time Altitude Azimuth Distance (km) Brightness Sun altitude
Rises 23:58:16 0° 278° (W) 2,275 5.8 -24.0°
Reaches altitude 10° 00:00:23 10° 284° (WNW) 1,421 4.4 -24.4°
Enters shadow 00:02:02 26° 298° (WNW) 808 2.7 -24.7°
